[Iaude] MPEC M34: 2022 MO [a=1.55,e=0.34,i=6.2,H=20.6]

mpec at marsden.cfa.harvard.edu mpec at marsden.cfa.harvard.edu
Wed Jun 22 08:31:59 EDT 2022


M.P.E.C. 2022-M34                                 Issued 2022 June 22, 12:30 UT

     The Minor Planet Electronic Circulars contain information on unusual
         minor planets and routine data on comets.  They are published
    on behalf of Division F of the International Astronomical Union by the
          Minor Planet Center, Smithsonian Astrophysical Observatory,
                          Cambridge, MA 02138, U.S.A.

             Prepared using the Tamkin Foundation Computer Network

                              MPC at CFA.HARVARD.EDU
            URL https://www.minorplanetcenter.net/    ISSN 1523-6714

                                    2022 MO                                     


Observations:
     K22M00O* C2022 06 20.35545416 54 29.947-08 56 36.25         22.07wUEM034F52
     K22M00O  C2022 06 20.36994016 54 28.395-08 56 36.11         21.65wUEM034F52
     K22M00O  C2022 06 20.38278816 54 26.998-08 56 35.88         21.67wUEM034F52
     K22M00O  C2022 06 20.49671716 54 14.642-08 56 34.19         21.36GVEM034F52
     K22M00O  C2022 06 20.49752016 54 14.561-08 56 34.11         21.07GVEM034F52
     K22M00O  C2022 06 20.49832416 54 14.487-08 56 34.05         21.14GVEM034F52
     K22M00O  C2022 06 20.49912616 54 14.395-08 56 34.14         21.07GVEM034F52
     K22M00O KC2022 06 21.17401316 53 05.17 -08 56 32.3          21.8 VuEM034H21
     K22M00O KC2022 06 21.17836016 53 04.69 -08 56 32.2          21.9 VuEM034H21
     K22M00O KC2022 06 21.18198216 53 04.30 -08 56 32.4          21.9 VuEM034H21
     K22M00O ^C2022 06 21.28344716 52 54.231-08 56 29.06         21.72GVEM034568
     K22M00O ^C2022 06 21.28442516 52 54.127-08 56 29.10         21.37GVEM034568
     K22M00O ^C2022 06 21.28548616 52 54.017-08 56 29.08         21.55GVEM034568
     K22M00O ^C2022 06 21.28969416 52 53.567-08 56 29.11         21.34GVEM034568
     K22M00O ^C2022 06 21.29227016 52 53.297-08 56 29.13         20.94GVEM034568
     K22M00O KC2022 06 22.21875216 51 17.50 -08 56 38.8          22.0 VuEM034H21
     K22M00O KC2022 06 22.22367816 51 16.95 -08 56 39.0          22.1 VuEM034H21
     K22M00O KC2022 06 22.22744416 51 16.56 -08 56 38.8          21.9 VuEM034H21
     K22M00O ^C2022 06 22.34334516 51 05.025-08 56 37.62         21.99GVEM034568
     K22M00O ^C2022 06 22.34432316 51 04.922-08 56 37.61         22.06GVEM034568
     K22M00O ^C2022 06 22.34530116 51 04.817-08 56 37.63         22.00GVEM034568

Observer details:
568 Mauna Kea.  Observers R. Wainscoat, H. Januszewski, T. Burdullis, L.
    Wells.  Measurers R. Weryk, R. Wainscoat.  3.6-m Canada-France-Hawaii
    Telescope + CCD.
F52 Pan-STARRS 2, Haleakala.  Observers J. Bulger, T. Lowe, A. Schultz, I.
    Smith, K. Chambers, T. Dukes.  Measurers K. Chambers, S. Chastel, T. de
    Boer, J. Fairlamb, H. Gao, M. Huber, C.-C. Lin, E. Magnier, Y.
    Ramanjooloo, R. Wainscoat, R. Weryk.  1.8-m Ritchey-Chretien + CCD.
H21 Astronomical Research Observatory, Westfield.  Observer R. Holmes.
    Measurers T. Linder, R. Holmes, L. Horn.  1.3-m f/4.0 astrograph + CCD.

Orbital elements:
2022 MO                                                  Earth MOID = 0.0811 AU
Epoch 2022 Aug. 9.0 TT = JDT 2459800.5                  Veres                   
M 297.45839              (2000.0)            P               Q                  
n   0.50932013     Peri.  238.58346     +0.89080324     -0.45083298             
a   1.5528952      Node   148.11148     +0.44478383     +0.83960925             
e   0.3360530      Incl.    6.16569     +0.09293509     +0.30299494             
P   1.94           H   20.65          G   0.15           U   9                  
Residuals in seconds of arc
220620 F52  0.2-  0.1-    220621 H21  0.3+  0.4+    220621 568  0.1+  0.0
220620 F52  0.1+  0.1-    220621 H21  0.1+  0.5+    220622 H21  0.1+  0.1+
220620 F52  0.1+  0.1-    220621 H21  0.1+  0.3+    220622 H21  0.2-  0.0
220620 F52  0.1-  0.2-    220621 568  0.1-  0.0     220622 H21  0.1-  0.2+
220620 F52  0.0   0.1-    220621 568  0.1-  0.0     220622 568  0.0   0.0
220620 F52  0.1+  0.1-    220621 568  0.0   0.0     220622 568  0.0   0.0
220620 F52  0.1+  0.2-    220621 568  0.0   0.0     220622 568  0.0   0.0

Ephemeris:
2022 MO                  a,e,i = 1.55, 0.34, 6                   q = 1.0310
Date    TT    R. A. (2000) Decl.     Delta      r    Elong.  Phase     V
2022 05 23    17 38 00.9 -10 23 28   0.8418  1.8066   153.9    14.3    22.4
...
2022 06 07    17 17 22.7 -09 19 53   0.7502  1.7520   165.9     8.1    21.8
...
2022 06 15    17 03 49.2 -09 01 11   0.7212  1.7209   164.2     9.2    21.7
...
2022 06 21    16 53 23.1 -08 56 24   0.7086  1.6968   159.0    12.4    21.8
2022 06 22    16 51 40.1 -08 56 27   0.7073  1.6927   157.9    13.0    21.8
2022 06 23    16 49 57.9 -08 56 45   0.7061  1.6886   156.9    13.7    21.8
...
2022 06 29    16 40 10.7 -09 03 57   0.7032  1.6635   150.1    17.7    21.9
...
2022 07 07    16 28 56.2 -09 27 58   0.7092  1.6291   140.8    23.2    22.1
...
2022 07 22    16 15 57.8 -10 52 59   0.7426  1.5617   124.5    32.4    22.3

M. P. C. Staff               (C) Copyright 2022 MPC           M.P.E.C. 2022-M34




More information about the Iaude mailing list